Weather History for Casper, WY

Change the Weather History Date:

Friday, February 1, 2013

  Actual Average Record
Temperature  
Mean Temperature 30 °F 25 °F  
Max Temperature 40 °F 35 °F 61 °F (2003)
Min Temperature 19 °F 14 °F -26 °F (1985)
Degree Days  
Heating Degree Days 35 40  
Month to date heating degree days 35 40  
Since 1 July heating degree days 3986 4417  
Cooling Degree Days 0 0  
Month to date cooling degree days 0 0  
Year to date cooling degree days 0 0  
Moisture  
Dew Point 21 °F    
Average Humidity 66    
Maximum Humidity 84    
Minimum Humidity 48    
Precipitation  
Precipitation T in 0.02 in 0.39 in (1989)
Month to date precipitation T 0.02  
Year to date precipitation 0.27 0.53  
Snow  
Snow 0.00 in 0.30 in - ()
Month to date snowfall 0.3  
Since 1 July snowfall 23.2 39.9  
Snow Depth -    
Sea Level Pressure  
Sea Level Pressure 30.11 in    
Wind  
Wind Speed 13 mph (WSW)    
Max Wind Speed 23 mph    
Max Gust Speed 30 mph    
Visibility 9 miles    
Events Snow    
T = Trace of Precipitation, MM = Missing Value Source: NWS Daily Summary

Daily Weather History Graph

Daily Weather History Graph

Search for Another Location

Airport:

Trip Planner

Search our weather history database for the weather conditions in past years. The results will help you decide how hot, cold, wet, or windy it might be!

Date:

Astronomy

Feb. 01, 2013 Rise Set
Actual Time 7:20 AM MST 5:19 PM MST
Civil Twilight 6:50 AM MST 5:49 PM MST
Nautical Twilight 6:16 AM MST 6:23 PM MST
Astronomical Twilight 5:43 AM MST 6:56 PM MST
Moon 11:40 PM MST 9:45 AM MST
Length of Visible Light 10h 58m
Length of Day
9h 58m
Waning Gibbous, 69% of the Moon is Illuminated
Feb 1
Waning Gibbous
Feb 3
Last Quarter
Feb 10
New
Feb 17
First Quarter
Feb 25
Full

Hourly Weather History & Observations

Time (MST) Temp. Windchill Dew Point Humidity Pressure Visibility Wind Dir Wind Speed Gust Speed Precip Events Conditions
12:53 AM 30.0 °F 18.7 °F 19.9 °F 66% 30.10 in 10.0 mi SW 16.1 mph - N/A   Clear
1:53 AM 30.9 °F 19.4 °F 19.9 °F 64% 30.07 in 10.0 mi SW 17.3 mph - N/A   Clear
2:53 AM 28.9 °F - 19.0 °F 67% 30.06 in 10.0 mi North - - N/A   Mostly Cloudy
3:53 AM 30.0 °F 20.0 °F 19.9 °F 66% 30.05 in 10.0 mi SW 12.7 mph - N/A   Clear
4:53 AM 30.0 °F 16.6 °F 19.9 °F 66% 30.04 in 10.0 mi SW 23.0 mph 27.6 mph N/A   Mostly Cloudy
5:53 AM 30.0 °F 18.3 °F 19.9 °F 66% 30.06 in 10.0 mi SW 17.3 mph - N/A   Mostly Cloudy
6:53 AM 30.9 °F 20.2 °F 21.0 °F 67% 30.06 in 10.0 mi SW 15.0 mph 24.2 mph N/A   Mostly Cloudy
7:53 AM 32.0 °F 19.8 °F 21.0 °F 64% 30.04 in 10.0 mi SW 20.7 mph 28.8 mph N/A   Overcast
8:53 AM 33.1 °F 21.9 °F 21.9 °F 64% 30.05 in 10.0 mi SW 18.4 mph - N/A   Overcast
9:53 AM 34.0 °F 23.4 °F 21.9 °F 61% 30.05 in 10.0 mi SSW 17.3 mph 24.2 mph N/A   Overcast
10:53 AM 35.1 °F 25.2 °F 23.0 °F 61% 30.05 in 10.0 mi SW 16.1 mph - N/A   Overcast
11:53 AM 37.9 °F 30.5 °F 23.0 °F 55% 30.04 in 10.0 mi WSW 11.5 mph - N/A   Overcast
12:42 PM 35.6 °F 26.2 °F 24.8 °F 65% 30.02 in 2.5 mi NW 15.0 mph 20.7 mph 0.00 in Snow Light Snow
12:53 PM 33.1 °F 25.5 °F 27.0 °F 78% 30.07 in 1.2 mi WNW 9.2 mph - 0.00 in Snow Light Snow
12:59 PM 33.8 °F 27.7 °F 28.4 °F 81% 30.02 in 3.0 mi West 6.9 mph - 0.00 in Snow Light Snow
1:12 PM 35.6 °F 29.2 °F 28.4 °F 75% 30.02 in 9.0 mi NW 8.1 mph - 0.00 in   Overcast
1:53 PM 37.0 °F 30.4 °F 24.1 °F 59% 30.07 in 10.0 mi NW 9.2 mph - 0.00 in   Overcast
2:53 PM 39.0 °F 32.3 °F 25.0 °F 57% 30.08 in 10.0 mi NW 10.4 mph - N/A   Scattered Clouds
3:53 PM 39.0 °F 31.4 °F 21.9 °F 50% 30.09 in 10.0 mi NW 12.7 mph - N/A   Clear
4:53 PM 35.1 °F 25.9 °F 19.0 °F 52% 30.13 in 10.0 mi NNW 13.8 mph - N/A   Clear
5:53 PM 30.0 °F 24.1 °F 21.0 °F 69% 30.18 in 10.0 mi SSW 5.8 mph - N/A   Clear
6:53 PM 25.0 °F 16.3 °F 19.0 °F 78% 30.21 in 10.0 mi SW 8.1 mph - N/A   Clear
7:53 PM 21.9 °F 12.5 °F 17.1 °F 82% 30.22 in 10.0 mi WSW 8.1 mph - N/A   Clear
8:53 PM 24.1 °F 15.2 °F 18.0 °F 77% 30.22 in 10.0 mi WSW 8.1 mph - N/A   Clear
9:53 PM 24.1 °F 18.2 °F 18.0 °F 77% 30.25 in - NW 4.6 mph - N/A   Scattered Clouds
10:53 PM 19.9 °F 10.1 °F 15.1 °F 81% 30.28 in - WNW 8.1 mph - N/A   Clear
11:53 PM 21.9 °F 9.2 °F 17.1 °F 82% 30.28 in - WSW 13.8 mph - N/A   Clear